Weather History for Curtin, WE

Change the Weather History Date:

Friday, November 8, 2013

  Actual Average Record
Temperature  
Mean Temperature 88 °F -  
Max Temperature 107 °F - - ()
Min Temperature 70 °F - - ()
Cooling Degree Days 24    
Growing Degree Days 38 (Base 50)    
Moisture  
Dew Point 65 °F    
Average Humidity 50    
Maximum Humidity 79    
Minimum Humidity 18    
Precipitation  
Precipitation 0.00 in - - ()
Sea Level Pressure  
Sea Level Pressure 29.73 in    
Wind  
Wind Speed 6 mph ()    
Max Wind Speed 25 mph    
Max Gust Speed -    
T = Trace of Precipitation, MM = Missing Value Source: Averaged Metar Reports

Daily Weather History Graph

Daily Weather History Graph

Search for Another Location

Airport:

Trip Planner

Search our weather history database for the weather conditions in past years. The results will help you decide how hot, cold, wet, or windy it might be!

Date:

Astronomy

Nov. 08, 2013 Rise Set
Actual Time 5:03 AM AWST 5:53 PM AWST
Civil Twilight 4:40 AM AWST 6:16 PM AWST
Nautical Twilight 4:13 AM AWST 6:43 PM AWST
Astronomical Twilight 3:46 AM AWST 7:11 PM AWST
Moon 9:22 AM AWST (11/8) 10:35 PM AWST (11/8)
Length of Visible Light 13h 36m
Length of Day
12h 50m
Waxing Crescent, 27% of the Moon is Illuminated
Nov 8
Waxing Crescent
Nov 10
First Quarter
Nov 17
Full
Nov 26
Last Quarter
Dec 3
New

Hourly Weather History & Observations

Time (AWST) Temp. Heat Index Dew Point Humidity Pressure Visibility Wind Dir Wind Speed Gust Speed Precip Events Conditions
12:00 AM 82 °F - 58 °F 34% 29.71 in - West 4.6 mph - -  
12:00 AM 82.4 °F 82.5 °F 59.0 °F 45% 29.71 in - West 4.6 mph - N/A   Unknown
1:00 AM 77.0 °F - 57.2 °F 50% 29.71 in - WNW 4.6 mph - N/A   Unknown
2:00 AM 77.0 °F - 66.2 °F 69% 29.71 in - West 5.8 mph - N/A   Unknown
3:00 AM 75 °F - 66 °F 67% 29.70 in - WNW 4.6 mph - -  
3:00 AM 75.2 °F - 66.2 °F 73% 29.71 in - WNW 4.6 mph - N/A   Unknown
4:00 AM 73.4 °F - 64.4 °F 73% 29.74 in - WNW 4.6 mph - N/A   Unknown
5:00 AM 69.8 °F - 62.6 °F 78% 29.74 in - NW 4.6 mph - N/A   Unknown
6:00 AM 75 °F - 67 °F 69% 29.77 in - NW 3.5 mph - -  
6:00 AM 75.2 °F - 66.2 °F 73% 29.77 in - NW 3.5 mph - N/A   Unknown
7:00 AM 80.6 °F 85.4 °F 73.4 °F 79% 29.83 in - SW 5.8 mph - N/A   Mostly Cloudy
8:00 AM 86.0 °F 91.8 °F 71.6 °F 62% 29.83 in - South 12.7 mph - N/A   Scattered Clouds
9:00 AM 90 °F - 70 °F 42% 29.80 in - WSW 5.8 mph - -  
9:00 AM 91.4 °F 96.8 °F 69.8 °F 49% 29.80 in - WSW 5.8 mph - N/A   Unknown
10:00 AM 95.0 °F 97.0 °F 64.4 °F 36% 29.80 in - West 5.8 mph - N/A   Unknown
11:00 AM 100.4 °F 102.4 °F 62.6 °F 29% 29.77 in - SSW 5.8 mph - N/A   Unknown
11:59 AM 100.4 °F 101.3 °F 60.8 °F 27% 29.74 in - WSW 5.8 mph - N/A   Overcast
12:00 PM 102 °F - 61 °F 18% 29.72 in - WSW 5.8 mph - -  
12:00 PM 102.2 °F 103.6 °F 60.8 °F 26% 29.71 in - WSW 5.8 mph - N/A   Overcast
1:00 PM 104.0 °F 105.3 °F 60.8 °F 24% 29.68 in - West 5.8 mph - N/A   Overcast
2:00 PM 104.0 °F 105.3 °F 60.8 °F 24% 29.68 in - NW 4.6 mph - N/A   Overcast
3:00 PM 102 °F - 66 °F 22% 29.65 in - WNW 13.8 mph - -   Overcast
3:00 PM 102.2 °F 106.9 °F 66.2 °F 31% 29.65 in - WNW 13.8 mph - N/A   Overcast
4:00 PM 96.8 °F 103.1 °F 69.8 °F 41% 29.68 in - North 11.5 mph - N/A   Overcast
5:00 PM 93.2 °F 102.4 °F 73.4 °F 52% 29.68 in - NW 13.8 mph - N/A   Overcast
6:00 PM 90 °F - 61 °F 28% 29.73 in - South 15.0 mph - -  
6:00 PM 91.4 °F 91.4 °F 60.8 °F 36% 29.74 in - South 15.0 mph - N/A   Overcast
6:51 PM 82.4 °F 84.6 °F 66.2 °F 58% 29.74 in - WSW 25.3 mph - N/A   Overcast
7:00 PM 80.6 °F 82.7 °F 66.2 °F 61% 29.74 in - WSW 18.4 mph - N/A   Mostly Cloudy
7:12 PM 77.0 °F - 68.0 °F 74% 29.74 in - West 15.0 mph - N/A   Scattered Clouds
8:00 PM 80.6 °F 82.7 °F 66.2 °F 61% 29.74 in - North 8.1 mph - N/A   Mostly Cloudy
8:17 PM 82.4 °F 83.9 °F 64.4 °F 54% 29.71 in - North 6.9 mph - N/A   Scattered Clouds
9:00 PM 83 °F - 65 °F 44% 29.72 in - North 4.6 mph - -  
9:00 PM 82.4 °F 83.9 °F 64.4 °F 54% 29.71 in - North 4.6 mph - N/A   Unknown
10:00 PM 84.2 °F 86.6 °F 66.2 °F 55% 29.74 in - WNW 9.2 mph - N/A   Unknown
11:00 PM 82.4 °F 86.3 °F 69.8 °F 66% 29.74 in - NNW 5.8 mph - N/A   Unknown